Regional Weather Roundup
Issued by NWS

Home | Current Version | Previous Version | Graphics & Text | Print | Product List | Glossary On
Versions: 1 2 3 4 5 6 7 8 9 10 11 12 13 14 15 16 17 18 19 20 21 22 23 24 25 26 27 28 29 30 31 32 33 34 35 36 37 38 39 40 41 42 43 44 45 46 47 48 49 50
000
ASUS43 KTOP 292359
RWRKS

WEATHER ROUNDUP FOR KANSAS
NATIONAL WEATHER SERVICE GOODLAND KS
700 PM CDT MON AUG 29 2016

NOTE:  "FAIR" INDICATES FEW OR NO CLOUDS BELOW 12,000 FEET WITH NO
SIGNIFICANT WEATHER AND/OR OBSTRUCTIONS TO VISIBILITY.

KSZ001>006-013>018-027>032-041>047-300100-
NORTHWEST KANSAS

CITY           SKY/WX    TMP DP  RH WIND       PRES   REMARKS
GOODLAND       MOSUNNY   73  60  63 S7        30.24R
6HR MIN TEMP:  72; 6HR MAX TEMP:  74;

HAYS           CLOUDY    70  61  73 SE7       30.18S
HILL CITY      CLOUDY    76  67  73 SE5       30.19R
6HR MIN TEMP:  72; 6HR MAX TEMP:  77; 6HR PCP: TRACE;

RUSSELL        LGT RAIN  69  67  93 E3        30.15F
6HR MIN TEMP:  67; 6HR MAX TEMP:  85; 6HR PCP:  0.94;

$$

KSZ061>065-074>080-084>089-300100-
SOUTHWEST KANSAS

CITY           SKY/WX    TMP DP  RH WIND       PRES   REMARKS
DODGE CITY     PTSUNNY   76  66  71 E7        30.19R
6HR MIN TEMP:  74; 6HR MAX TEMP:  79; 6HR PCP:  0.03;

ELKHART          N/A     72  62  71 S3          N/A
GARDEN CITY    PTSUNNY   75  63  66 E5        30.19S
6HR MIN TEMP:  69; 6HR MAX TEMP:  77; 6HR PCP:  0.04;

GREAT BEND     CLOUDY    70  63  78 E5        30.18F
LIBERAL        CLOUDY    73  64  73 NW3       30.20F
$$

KSZ066>073-081>083-090>101-300100-
SOUTHEAST KANSAS

CITY           SKY/WX    TMP DP  RH WIND       PRES   REMARKS
CHANUTE        PTCLDY    84  68  58 CALM      30.09S
6HR MIN TEMP:  82; 6HR MAX TEMP:  90;

COFFEYVILLE    HVY RAIN  80  73  79 N9        30.07R
6HR MIN TEMP:  75; 6HR MAX TEMP:  91; 6HR PCP:  0.11;

HUTCHINSON     MOSUNNY   82  67  60 S3        30.13R
6HR MIN TEMP:  82; 6HR MAX TEMP:  88;

MEDICINE LODGE   N/A     81  66  60 E5        30.12R
NEWTON         CLOUDY    80  70  71 SE6       30.14R
PARSONS        LGT RAIN  79  74  84 N3        30.08F
6HR MIN TEMP:  77; 6HR MAX TEMP:  91; 6HR PCP:  0.01;

WICHITA INTL   PTSUNNY   83  69  62 S7        30.11R
6HR MIN TEMP:  82; 6HR MAX TEMP:  88;

WICHITA JABRA  MOSUNNY   82  71  69 SE6       30.12R
6HR MIN TEMP:  82; 6HR MAX TEMP:  87;

WINFIELD       MOSUNNY   84  68  58 SE7       30.11S
6HR MIN TEMP:  76; 6HR MAX TEMP:  86; 6HR PCP:  0.02;

$$

KSZ007>012-019>026-033>040-048>060-102>105-300100-
NORTHEAST KANSAS

CITY           SKY/WX    TMP DP  RH WIND       PRES   REMARKS
CONCORDIA      CLOUDY    73  67  81 NW6       30.15S
6HR MIN TEMP:  72; 6HR MAX TEMP:  88; 6HR PCP: TRACE;

EMPORIA        CLOUDY    79  74  84 CALM      30.12R
6HR MIN TEMP:  74; 6HR MAX TEMP:  84; 6HR PCP:  0.07;

LAWRENCE       PTCLDY    87  73  62 SE3       30.09R
6HR MIN TEMP:  86; 6HR MAX TEMP:  90;

MANHATTAN      MOSUNNY   82  69  64 S17       30.12R
6HR MIN TEMP:  81; 6HR MAX TEMP:  90;

OLATHE IND     CLEAR     86  70  58 SE6       30.11S
6HR MIN TEMP:  81; 6HR MAX TEMP:  89; 6HR PCP: TRACE;

OLATHE EXE     CLEAR     84  70  62 S3        30.10S
6HR MIN TEMP:  82; 6HR MAX TEMP:  88;

SALINA         MOSUNNY   75  70  84 NW5       30.13F
6HR MIN TEMP:  74; 6HR MAX TEMP:  86; 6HR PCP:  0.54;

TOPEKA BILLARD SUNNY     86  69  56 SE3       30.10R
6HR MIN TEMP:  86; 6HR MAX TEMP:  90;

TOPEKA FORBES  CLOUDY    87  71  58 S3        30.11R
6HR MIN TEMP:  87; 6HR MAX TEMP:  92;

$$




USA.gov is the U.S. government's official web portal to all federal, state and local government web resources and services.